Other Public Products
Issued by NWS Grand Forks, ND

Home | Current Version | Previous Version | Graphics & Text | Print | Product List | Glossary On
Versions: 1 2 3 4 5 6 7 8 9 10 11 12 13 14 15 16 17 18 19 20 21 22 23 24 25 26 27 28 29 30 31 32 33 34 35 36 37 38 39 40 41 42 43 44 45 46 47 48 49 50
000
FPUS83 KFGF 301410
OPUFGF
PRAIRIE TO PINES WEATHER ROUNDUP
NATIONAL WEATHER SERVICE EASTERN NORTH DAKOTA/GRAND FORKS ND
900 AM CDT THU MAR 30 2017

 **SATELLITE DATA USED TO AUGMENT SKY COVER AT AUTOMATED STATIONS**
 *****  WEATHER ACROSS EASTERN NORTH DAKOTA  *****

CITY           SKY/WX    TMP DP  RH WIND       PRES   REMARKS
GRAND FORKS    PTSUNNY   41  37  86 S10       29.93S
GRAND FORKS AF FAIR      43  35  75 S14       29.92S
GRAND CITY NWS NOT AVBL
BUXTON         NOT AVBL
DEVILS LAKE    PTSUNNY   39  35  86 S15       29.87S
FARGO          FAIR      38  35  89 CALM      29.95S FOG
WAHPETON ARPT  FAIR      37  36  93 E6        29.94S
$$

 *****  WEATHER ACROSS CENTRAL AND WESTERN NORTH DAKOTA  *****

CITY           SKY/WX    TMP DP  RH WIND       PRES   REMARKS
JAMESTOWN      PTSUNNY   36  35  96 S12       29.89F
BISMARCK       FAIR      39  35  86 SE12      29.85S
MINOT          CLOUDY    46  35  65 S14       29.75S
MINOT AFB      NOT AVBL
GARRISON         N/A     40  34  79 S8        29.78S
WILLISTON      CLOUDY    44  37  76 NE5       29.71F
DICKINSON      CLOUDY    41  37  86 S12       29.72S
HETTINGER      CLOUDY    40  35  83 SE9       29.77F
$$

 *****  OTHER OBSERVATIONS NORTHEAST NORTH DAKOTA  *****

CITY           SKY/WX    TMP DP  RH WIND       PRES   REMARKS
WALHALLA       NOT AVBL
LANGDON        CLOUDY    37  37 100 S17       29.86S
CAVALIER       CLOUDY    39  37  93 S13       29.88S
GRAFTON        PTSUNNY   39  37  93 S10       29.93F
CANDO          NOT AVBL
FORT TOTTEN      N/A     38  38 100 S14       29.95S
ROLLA          FAIR      36  36 100 S15       29.81S
RUGBY          NOT AVBL
 ***** THE ABOVE OBSERVATIONS ARE NON NWS ARE NOT QUALITY
        CONTROLLED AND MAY MIS-REPORT RAIN FOR SNOW...
$$

 *****  OTHER OBSERVATIONS SOUTHEAST NORTH DAKOTA *****

CITY           SKY/WX    TMP DP  RH WIND       PRES   REMARKS
COOPERSTOWN    FAIR      37  36  93 S13       29.91F
VALLEY CITY    FAIR      37  37 100 MISG      29.93F
OAKES          NOT AVBL
GWINNER        CLOUDY    37  37 100 MISG      29.93S
SHEYENNE NWR     N/A     32  32 100 CALM      29.95S
BUFFALO        NOT AVBL
WYNDMERE       NOT AVBL
 ***** THE ABOVE OBSERVATIONS ARE NON NWS ARE NOT QUALITY
       CONTROLLED AND MAY MIS-REPORT RAIN FOR SNOW...
$$

  *****  WEATHER ACROSS NORTHERN MINNESOTA  *****

CITY           SKY/WX    TMP DP  RH WIND       PRES   REMARKS
FLAG ISLAND    FAIR      34  30  86 S13       29.96S WCI  25
WARROAD        FAIR      37  34  87 S5        29.96F
ROSEAU         PTSUNNY   37  34  87 S7        29.95F
HALLOCK        DRIZZLE   39  37  93 S16       29.91F
THF RVR FALLS  FAIR      37  35  92 S9        29.96F
HALSTAD          N/A     35  34  96 SE5         N/A
FOSSTON        FOG       34  34 100 SE5       29.97F VSB 1/4
BAUDETTE       FAIR      35  30  82 S5        29.98F
WASKISH        FAIR      36  32  87 CALM      29.98F
CROOKSTON      FAIR      37  37 100 S9        29.96F
$$
  *****  WEATHER ACROSS CENTRAL AND WEST MINNESOTA  *****

CITY           SKY/WX    TMP DP  RH WIND       PRES   REMARKS
BEMIDJI        FOG       31  31  99 CALM      29.97F VSB 1/4
PARK RAPIDS    CLOUDY    33  31  92 CALM      29.94F FOG
WADENA         FAIR      34  30  86 E6        29.94F
DETROIT LAKES  FOG       36  36 100 SE7       29.95S VSB 1/4
MOORHEAD       FAIR      36  36 100 CALM      29.96S FOG
FERGUS FALLS   FAIR      39  37  93 E5        29.96F
ELBOW LAKE     FAIR      40  37  88 SE12      29.93F FOG
MORRIS MN      FAIR      41  37  87 E16       29.91F
STAPLES        CLOUDY    34  32  93 E5        29.95F
WHEATON        FAIR      39  36  87 E8        29.95F
$$
  *****  WEATHER ELSEWHERE ACROSS MINNESOTA  *****

CITY           SKY/WX    TMP DP  RH WIND       PRES   REMARKS
DULUTH         FAIR      35  30  82 E14       30.00F
INTRNTL FALLS  FAIR      33  26  75 SE5       30.01F
ELY            FAIR      34  27  75 CALM      30.01F
CLOQUET        CLOUDY    34  28  80 E8        30.00F
BRAINERD       CLOUDY    33  30  88 NE7       29.98S
HIBBING        PTSUNNY   31  29  92 E3        30.00F
ALEXANDRIA     CLOUDY    38  35  89 E12       29.93F
SAINT CLOUD    CLOUDY    37  31  78 E10       29.95F
MINNEAPOLIS    CLOUDY    39  34  82 E12       29.92F
$$

  *****  WEATHER ACROSS SOUTH DAKOTA  *****

CITY           SKY/WX    TMP DP  RH WIND       PRES   REMARKS
SIOUX FALLS    DRIZZLE   39  37  92 E20       29.85S
BROOKINGS      CLOUDY    37  36  93 E10       29.86S
WATERTOWN      CLOUDY    37  35  92 E9        29.88S
HURON          CLOUDY    40  36  86 E10       29.88S
SISSETON         N/A     41  38  89 SE9       29.91F
ABERDEEN       CLOUDY    39  35  86 E3        29.91F
MITCHELL       CLOUDY    42  36  79 NE10      29.88S
PIERRE         CLOUDY    38  34  85 SE7       29.86S
MOBRIDGE       CLOUDY    36  32  85 SE6       29.86R
RAPID CITY     FOG       35  35 100 SE5       29.76F VSB 1/4
$$

  *****  SOME WEATHER IN NEARBY STATES *****

CITY           SKY/WX    TMP DP  RH WIND       PRES   REMARKS
GLASGOW MT     FAIR      39  33  79 SE6       29.68R
GREAT FALLS MT MOCLDY    41  33  73 SW8       29.71R
CHEYENNE WY    PTSUNNY   40  30  67 W5        29.81S
SCOTTSBLUFF NE FAIR      35  32  88 CALM      29.78F
OMAHA NE       CLOUDY    42  37  82 N16       29.72S
DES MOINES IA  DRIZZLE   43  41  93 NE13      29.69S FOG
DAVENPORT IA   LGT RAIN  44  42  93 E17G23    29.69S FOG
CHICAGO IL     LGT RAIN  42  39  89 E15G24    29.77F
EAU CLAIRE WI  CLOUDY    37  34  89 E14       29.93F
LA CROSSE WI   LGT RAIN  39  36  89 E9G22     29.87F
$$

  *****  SOME NATIONAL WEATHER *****

CITY           SKY/WX    TMP DP  RH WIND       PRES   REMARKS
LA GUARDIA NY  PTSUNNY   43  21  41 NE12      30.26S
RALEIGH NC     CLOUDY    56  44  64 E12       30.17F
ATLANTA GA     PTSUNNY   67  55  65 VRB3      30.02R
NEW ORLEANS LA TSTM      66  60  81 W25G32    29.92R
OKLAHOMA CITY  CLOUDY    48  41  76 NW14      29.77R
ALBUQUERQUE NM FAIR      41  36  82 CALM      30.03R
SALT LAKE CITY MOCLDY    51  35  54 S13       29.78F
LOS ANGELES CA FAIR      57  55  93 E3        29.95R
BOISE ID       RAIN      45  44  97 W6        29.73R FOG
SEATTLE WA     CLOUDY    43  41  93 S7        30.10R
$$

*** WEATHER ACROSS MANITOBA...SASKATCHEWAN AND ONTARIO ***
                ***ONTARIO***

CITY           SKY/WX    TMP DP  RH WIND       PRES   REMARKS
GERALDTON      MOSUNNY   32  21  64 S7        30.15F
THUNDER BAY    PTSUNNY   36  32  87 E8        30.12F
SIOUX LOOKOUT  CLOUDY    34  25  69 S9        30.01S
TORONTO        CLOUDY    37  23  56 E13G25    30.21F
BIG TROUT LK   LGT RAIN  34  28  80 S12       29.93F
PICKLE LAKE    PTSUNNY   32  21  64 S12G18    30.00S WCI  23
DRYDEN         PTSUNNY   34  27  75 S10       29.99F
KENORA         PTSUNNY   36  32  87 S9        29.96S
$$
                *** MANITOBA***

CITY           SKY/WX    TMP DP  RH WIND       PRES   REMARKS
BRANDON        CLOUDY    36  34  93 SE5       29.78S
DAUPHIN        FOG       30  30 100 N5        29.81R VSB 1/8
ISLAND LAKE    NOT AVBL
PILOT MOUND      N/A     37  34  87 S17         N/A
THE PAS        FOG       32  30  93 N3        29.83R VSB 3/8
THOMPSON       FLURRIES  32  30  93 NE6       29.87S
WINNIPEG       PTSUNNY   41  37  87 S20       29.86S
LYNN LAKE      CLOUDY    28  23  80 NE5       29.89S WCI  23
CHURCHILL      PTSUNNY   10   7  85 E10       30.05S WCI  -3
GILLAM         CLOUDY    28  21  74 NE7       29.90F WCI  21
$$
                ***SASKATCHEWAN***

CITY           SKY/WX    TMP DP  RH WIND       PRES   REMARKS
ESTEVAN        PTSUNNY   37  34  87 N5        29.74S
KINDERSLEY     PTCLDY    36  34  93 NE15      29.68R
LLOYDMINSTER   FOG       30  30 100 E8        29.77R VSB 1/8 WCI  23
PRINCE ALBERT  CLOUDY    34  32  93 E5        29.83R
REGINA         PTSUNNY   41  34  75 E6        29.72S
YORKTON        FOG       28  28 100 N7        29.77S VS


USA.gov is the U.S. government's official web portal to all federal, state and local government web resources and services.